カタログに戻る

STARLINK-11479

運用中通信VLEO
NORAD 62270·PAYLOAD·🇺🇸 United States

打ち上げ Dec 8, 2024 から Cape Canaveral Space Force Station

Loading…

次のパス (今後24時間)

TLE

最新Source: CelesTrak SupGP

元期: Sep 15, 2026, 02:57 UTC

1 62270C 24237D   26258.12340278 -.00069699  00000+0 -54157-3 0  2588
2 62270  43.0006 354.8025 0001819 260.1389 144.3144 15.70862709    14

AllMySatでSTARLINK-11479をリアルタイム追跡

Download on the App Store